Retour au catalogue

STARLINK-37800

ActifCommunicationsSSO
NORAD 69436·PAYLOAD·🇺🇸 United States

Lancé Jun 7, 2026 depuis Vandenberg Space Force Base

Loading…

Prochains Passages (prochaines 24 heures)

TLE

FraisSource: CelesTrak SupGP

Époque: Sep 14, 2026, 21:32 UTC

1 69436C 26126S   26257.89770833  .00035657  00000+0  11074-2 0  2579
2 69436  97.2849 119.2044 0001963  94.8863 327.0935 15.33406258    14

Suivez STARLINK-37800 en temps réel avec AllMySat

Download on the App Store